This demonstration page uses our WeatherBlox Daily Observations layout. Learn more.

Left ArrowRight Arrow

38.80484, -77.04692

Hourly Observations for December 17, 2020

Temp ( °F °C ) Dew Point ( °F °C ) Humidity (%) Winds ( mph kmh ) Pressure ( in mb ) Visibility ( mi km ) Precip ( " mm )
12:52 am 00:52 Cloudy with Light Snow 32 0 29 -1.7 88 88 NNW 15 24 29.81 1010 6 10 0.01 0.25
1:03 am 01:03 Cloudy 32 0 28 -2.2 85 85 NW 16 26 29.83 1010 10 16 0.00 0.00
1:52 am 01:52 Cloudy 31 -0.6 28 -2.2 89 89 NNW 15 24 29.83 1010 10 16 0.00 0.00
2:52 am 02:52 Mostly Clear 31 -0.6 26 -3.3 82 82 NNW 14 22 29.86 1011 10 16 0.00 0.00
3:29 am 03:29 Mostly Cloudy 31 -0.6 26 -3.3 82 82 NW 10 17 29.89 1012 10 16 0.00 0.00
3:41 am 03:41 Partly Cloudy 30 -1.1 25 -3.9 82 82 NW 13 20 29.89 1012 10 16 0.00 0.00
3:52 am 03:52 Mostly Clear 30 -1.1 25 -3.9 82 82 NNW 17 28 29.89 1012 10 16 0.00 0.00
4:52 am 04:52 Mostly Clear 29 -1.7 24 -4.4 82 82 NNW 14 22 29.90 1012 10 16 0.00 0.00
5:52 am 05:52 Partly Cloudy 28 -2.2 24 -4.4 85 85 NNW 10 17 29.92 1013 10 16 0.00 0.00
6:08 am 06:08 Mostly Cloudy 28 -2.2 23 -5 81 81 NNW 12 19 29.94 1014 10 16 0.00 0.00
6:45 am 06:45 Mostly Cloudy 28 -2.2 23 -5 81 81 NNW 17 28 29.96 1015 10 16 0.00 0.00
6:52 am 06:52 Partly Cloudy 28 -2.2 23 -5 81 81 NNW 10 17 29.96 1015 10 16 0.00 0.00
7:52 am 07:52 Mostly Sunny 28 -2.2 23 -5 81 81 NNW 12 19 29.98 1015 10 16 0.00 0.00
8:52 am 08:52 Sunny 31 -0.6 23 -5 72 72 NNW 10 17 30.01 1016 10 16 0.00 0.00
9:52 am 09:52 Mostly Sunny 33 0.6 25 -3.9 72 72 NNW 10 17 30.03 1017 10 16 0.00 0.00
10:52 am 10:52 Mostly Sunny 35 1.7 26 -3.3 70 70 NW 10 17 30.05 1018 10 16 0.00 0.00
11:52 am 11:52 Mostly Sunny 37 2.8 27 -2.8 67 67 NNW 9 15 30.02 1017 10 16 0.00 0.00
12:52 pm 12:52 Mostly Sunny 39 3.9 27 -2.8 62 62 N 8 13 30.01 1016 10 16 0.00 0.00
1:52 pm 13:52 Mostly Sunny 41 5 27 -2.8 57 57 NW 9 15 30.01 1016 10 16 0.00 0.00
2:52 pm 14:52 Mostly Sunny 40 4.4 27 -2.8 60 60 WNW 12 19 30.03 1017 10 16 0.00 0.00
3:52 pm 15:52 Mostly Sunny 38 3.3 28 -2.2 68 68 NNW 12 19 30.04 1017 10 16 0.00 0.00
4:52 pm 16:52 Mostly Clear 35 1.7 27 -2.8 72 72 NW 7 11 30.07 1018 10 16 0.00 0.00
5:52 pm 17:52 Clear 35 1.7 27 -2.8 72 72 NNW 8 13 30.09 1019 10 16 0.00 0.00
6:52 pm 18:52 Mostly Clear 34 1.1 28 -2.2 79 79 NNW 7 11 30.12 1020 10 16 0.00 0.00
7:52 pm 19:52 Mostly Cloudy 34 1.1 28 -2.2 79 79 NNW 6 9 30.14 1021 10 16 0.00 0.00
8:52 pm 20:52 Mostly Cloudy 35 1.7 26 -3.3 70 70 ENE 8 13 30.15 1021 10 16 0.00 0.00
9:39 pm 21:39 Cloudy 36 2.2 28 -2.2 73 73 NNE 5 7 30.16 1021 10 16 0.00 0.00
9:52 pm 21:52 Cloudy 36 2.2 26 -3.3 67 67 NNE 6 9 30.16 1022 10 16 0.00 0.00
10:52 pm 22:52 Cloudy 36 2.2 26 -3.3 67 67 NE 7 11 30.18 1022 10 16 0.00 0.00
11:52 pm 23:52 Cloudy 36 2.2 26 -3.3 67 67 NNE 5 7 30.19 1022 10 16 0.00 0.00

Powered by AerisWeather